Theta_e
323 323 323 321 320 321 320 320 321 321 319 318 324 335 338 337 338 338 337 338 337 337 336 335 335 335 334 332 330 328 326 324 322 322 322 323 322 317 315 316 316 317 320 321 321 320 320 319 318 318 317 316 315 315 315 314 314 314 313 313 313 314 313 312 312 312 311 312 312 312 312 312 312 312 311 311 311 311 311 311 312 311 311 311 311
318 318 322 324 324 322 320 320 321 319 318 324 333 338 338 338 338 336 337 338 337 336 336 335 334 334 332 329 327 324 322 321 320 319 319 318 319 316 313 314 315 317 319 320 320 319 319 318 318 317 317 317 315 314 314 314 314 314 313 313 312 313 313 312 312 312 312 312 312 312 312 312 312 312 311 311 310 310 310 310 311 311 310 311 311
322 324 328 331 330 326 322 318 317 317 323 332 337 338 338 338 336 335 336 337 337 336 335 334 333 331 329 326 324 322 321 320 318 318 317 316 317 317 314 313 315 317 320 320 319 319 318 318 317 317 316 316 316 315 314 314 313 314 313 312 312 313 313 312 311 312 312 312 312 312 312 311 311 312 311 310 310 310 309 310 311 310 310 310 310
333 334 335 336 335 334 330 325 322 324 331 337 337 337 338 337 335 335 335 337 337 335 334 333 331 328 326 324 322 321 320 319 318 316 314 312 313 316 317 316 315 316 319 319 318 318 318 317 317 316 316 315 315 315 314 314 313 313 313 312 312 312 312 312 312 311 311 311 312 311 312 312 311 311 311 310 310 310 309 310 310 310 310 310 310
338 338 338 338 338 337 336 335 333 334 337 338 337 338 337 336 335 334 335 337 336 334 333 333 331 327 323 322 322 321 320 319 317 314 312 309 309 312 315 317 317 316 317 317 317 317 317 317 316 316 316 315 315 315 315 314 313 313 313 312 312 312 312 312 312 312 311 311 311 310 311 312 311 311 310 309 309 310 309 309 310 309 310 310 310
339 339 339 339 339 338 337 338 337 338 339 339 339 338 337 336 335 334 336 336 335 333 333 332 329 325 323 322 322 322 320 317 314 312 308 305 307 309 311 314 317 316 316 315 314 314 315 316 316 315 315 315 315 315 315 314 314 313 313 312 312 312 312 312 312 312 311 311 311 310 309 310 311 311 310 309 309 309 309 309 309 309 309 310 309
338 338 339 339 339 339 338 338 338 338 338 339 339 337 336 336 335 335 336 336 334 332 332 330 326 324 323 322 324 323 319 314 311 308 304 304 306 307 308 311 314 316 316 314 312 311 311 313 313 313 313 313 313 314 314 314 313 313 312 312 312 312 312 312 312 311 311 311 311 310 308 308 310 311 310 310 309 309 309 308 309 309 309 309 308
336 337 338 338 339 339 338 337 338 338 338 339 338 337 336 335 334 334 335 335 333 331 330 328 324 323 322 324 326 322 316 311 308 305 303 305 306 304 305 310 311 311 313 314 313 311 309 309 311 311 311 311 311 312 312 313 312 312 312 311 311 311 311 311 311 311 311 311 311 310 309 307 308 311 310 309 309 308 308 308 308 309 308 308 307
336 336 337 338 338 338 337 337 337 338 338 338 337 336 335 335 334 333 334 334 332 330 328 326 324 322 323 325 324 318 312 309 306 303 302 304 306 304 306 309 308 307 310 313 313 312 308 305 306 308 309 309 309 310 310 311 311 312 311 311 310 311 311 311 311 311 311 311 311 310 310 308 308 310 310 309 308 308 308 308 308 308 307 307 307
336 337 337 338 337 337 336 336 337 337 338 338 337 336 335 334 333 333 333 333 333 331 328 326 323 323 324 322 318 312 310 307 304 302 303 305 305 305 306 307 306 306 308 309 309 310 308 304 303 305 307 307 308 308 308 309 309 310 311 311 310 309 310 310 311 311 310 311 311 309 309 309 308 309 310 308 308 308 308 307 308 308 306 306 307
336 337 337 338 337 337 337 336 337 337 338 337 336 335 334 333 333 332 333 333 332 331 328 325 323 323 323 318 312 310 308 306 304 303 304 305 304 304 304 304 305 304 304 305 305 305 305 305 305 306 305 304 305 306 307 308 308 308 310 310 309 309 309 310 310 311 311 311 311 309 309 309 308 309 309 308 307 308 307 307 308 307 306 306 306
336 337 338 338 337 337 337 337 336 337 338 337 336 335 333 332 332 332 332 332 331 330 328 326 324 322 319 314 310 309 308 306 305 304 305 305 305 305 305 305 305 302 302 302 302 302 302 304 305 305 305 302 301 302 303 305 306 307 309 309 308 309 309 309 309 310 310 311 310 309 308 308 308 308 309 308 308 308 307 307 307 306 306 306 305
336 337 338 338 337 337 337 337 336 337 338 337 336 335 333 332 331 331 331 331 330 328 327 326 324 319 316 314 311 309 308 305 305 306 306 306 306 305 306 306 305 304 302 301 301 302 303 303 303 303 304 303 302 301 301 302 303 305 306 306 306 308 308 307 308 309 310 310 310 309 308 308 308 307 308 308 307 307 307 307 306 306 306 305 305
336 337 338 337 337 337 337 337 337 337 338 337 336 334 333 331 330 329 329 330 330 327 327 327 323 319 316 315 312 310 308 306 306 307 307 307 305 305 306 305 306 304 302 302 302 303 303 303 303 303 303 303 303 303 303 303 302 301 302 302 303 305 306 306 306 307 309 310 310 309 308 308 307 307 308 308 307 307 307 307 306 306 306 305 305
336 337 338 337 337 337 336 337 337 337 337 337 336 334 332 331 330 329 328 328 328 327 328 326 322 318 317 316 315 313 311 309 308 308 307 307 306 306 306 305 305 304 303 304 304 304 304 303 303 303 303 303 304 304 304 303 301 300 300 300 300 301 302 304 305 305 307 309 309 309 308 308 307 307 308 308 307 307 306 306 306 306 306 306 305
336 337 338 337 337 337 337 337 337 337 337 337 336 334 332 330 329 329 329 326 324 324 326 324 320 319 318 317 315 315 316 314 311 309 308 307 306 306 306 305 305 304 304 304 305 304 304 304 303 302 302 303 303 304 303 303 301 300 300 299 299 299 299 300 302 304 306 308 308 309 308 308 307 307 308 308 307 307 306 306 306 306 306 305 305
337 337 338 337 337 337 337 337 337 337 337 337 336 335 332 330 329 328 329 328 324 322 322 320 320 321 320 319 317 317 320 316 313 312 308 308 308 307 307 306 305 305 304 304 304 304 304 304 303 301 301 303 303 303 303 302 302 302 303 301 299 298 297 297 299 303 305 307 308 308 308 308 307 307 307 306 306 306 306 306 306 306 305 305 304
337 337 338 337 337 337 337 337 337 337 337 336 336 335 332 330 329 328 328 328 327 322 319 318 318 319 319 320 320 321 320 315 314 314 310 308 309 308 307 307 306 305 304 304 304 304 304 304 302 302 302 302 302 302 302 301 302 303 303 301 298 298 296 295 297 300 303 306 307 307 308 308 307 306 306 305 305 305 306 305 305 305 304 304 304
337 337 338 337 337 337 336 337 337 337 337 336 336 335 333 331 329 329 327 327 327 324 320 319 317 316 318 318 318 318 318 315 315 315 312 310 309 308 309 308 307 306 304 304 303 303 304 304 304 303 302 301 301 302 301 301 300 300 300 299 298 297 296 295 296 297 300 305 307 307 307 307 306 306 305 304 304 305 305 305 305 304 303 303 303
337 337 337 337 338 337 336 337 337 337 337 336 336 335 334 332 330 329 327 326 327 326 323 320 318 318 317 317 318 317 316 315 315 316 316 314 310 308 308 307 307 307 305 304 303 303 304 304 304 303 302 301 301 301 301 301 300 299 299 299 298 296 295 295 296 297 298 301 305 306 306 306 306 305 304 304 304 304 304 304 304 303 303 303 302
337 337 337 338 338 337 336 336 337 337 336 336 336 335 334 333 331 329 328 326 327 326 325 322 321 321 319 318 319 317 314 312 313 315 316 317 314 310 308 307 307 307 305 303 303 303 304 304 304 303 302 301 301 301 301 300 299 299 299 298 297 295 295 296 297 298 298 299 302 304 305 305 305 305 304 303 303 303 303 304 304 303 302 302 301
337 337 338 338 337 337 336 336 336 336 336 335 335 335 334 333 332 331 329 328 327 326 325 324 323 323 321 320 319 317 315 313 313 313 315 316 316 313 310 308 308 309 305 303 304 304 304 304 303 303 303 302 302 301 301 300 299 299 299 297 296 295 295 296 297 298 299 299 299 301 303 303 304 304 303 302 302 302 303 303 303 303 302 301 300
337 337 338 338 337 337 336 336 336 336 335 335 334 334 334 333 333 332 330 329 328 326 325 325 324 323 322 321 320 319 319 319 317 315 316 317 317 315 311 308 308 309 306 304 305 304 303 303 303 303 302 302 302 301 300 300 299 298 298 297 295 295 296 297 298 299 299 299 298 299 301 302 303 303 302 302 302 302 302 302 302 302 301 300 300
337 337 338 337 337 336 336 336 336 335 335 334 334 333 333 332 332 331 331 330 329 327 326 325 324 323 322 321 321 321 321 323 321 318 318 319 319 317 312 308 308 307 305 304 304 303 303 303 303 302 302 302 301 300 300 299 299 298 297 296 295 295 296 297 298 299 299 299 298 298 299 300 301 301 301 300 300 300 301 302 301 299 298 298 297
336 337 337 337 337 336 336 336 335 335 334 334 333 333 331 331 330 330 331 330 329 328 327 326 325 324 324 323 322 321 321 322 321 320 320 318 318 317 311 308 308 306 304 304 304 303 303 303 303 302 301 301 300 299 299 299 299 298 296 295 295 296 297 298 298 299 298 298 298 298 298 298 298 298 298 298 297 298 298 298 297 296 296 296 295
336 337 337 337 336 335 335 335 335 334 334 333 332 331 330 329 329 329 330 329 329 328 327 327 326 325 325 324 322 322 321 321 320 320 320 317 317 316 311 308 309 306 304 304 304 304 304 303 302 302 301 300 299 299 299 298 298 297 296 295 296 297 297 298 298 298 298 298 298 298 298 297 297 297 297 297 297 296 296 296 295 295 295 295 295
336 336 336 337 336 335 335 335 335 334 333 333 332 331 329 329 329 328 328 328 328 328 327 326 326 326 325 324 323 323 322 321 321 320 320 318 317 315 311 309 308 306 305 304 304 305 304 303 302 301 300 300 299 299 298 298 297 296 295 296 297 297 297 298 298 298 298 298 298 298 297 297 297 297 297 297 296 296 295 295 295 295 295 295 296
336 336 336 336 336 335 335 334 334 334 333 333 332 331 330 329 328 327 327 327 326 326 325 325 325 325 325 324 323 323 322 322 321 321 319 318 317 314 312 311 310 308 306 305 305 305 304 303 302 300 300 299 299 298 298 299 297 296 296 297 297 298 297 298 298 298 298 298 298 297 297 297 297 297 297 297 296 296 295 295 295 295 295 296 296
336 336 336 336 335 335 334 334 334 333 332 332 331 330 328 327 327 326 326 325 325 324 324 323 324 324 324 324 323 323 323 322 320 318 316 315 315 313 312 312 312 311 308 307 307 306 304 303 302 301 299 299 299 298 298 299 297 296 297 297 298 298 297 297 297 297 297 297 297 297 296 297 297 297 297 296 296 296 295 295 295 295 296 296 297
336 336 336 336 335 335 334 334 333 332 331 330 329 328 327 326 325 325 324 324 323 322 321 321 321 322 322 322 321 321 319 316 314 312 312 312 311 311 310 311 312 312 311 309 308 307 305 304 303 301 299 298 299 298 298 298 297 296 297 298 298 298 297 297 297 297 297 297 297 297 297 297 297 297 297 296 296 296 295 295 295 296 296 297 297
336 336 336 335 335 334 334 333 332 331 330 328 327 326 325 325 324 323 323 322 321 321 320 319 318 318 318 317 316 314 311 310 309 310 310 310 309 309 309 309 310 311 311 310 309 308 306 305 304 301 299 298 298 298 298 298 297 296 298 298 298 297 297 297 298 297 298 297 297 297 297 297 297 297 297 297 296 296 295 296 296 296 297 297 297
335 335 335 335 335 334 333 333 331 330 329 327 326 325 324 323 323 322 322 321 320 319 318 317 316 314 314 312 311 309 308 309 309 309 309 309 309 308 308 308 307 308 309 309 310 309 306 305 304 300 299 298 298 298 299 298 298 297 298 299 298 297 298 299 298 298 298 297 297 297 297 298 298 298 297 297 296 296 296 296 296 297 297 297 297
335 335 335 335 335 334 333 332 331 330 328 326 325 323 322 322 321 320 320 319 318 317 316 315 313 312 311 310 309 309 308 308 308 308 307 307 307 307 307 308 307 306 307 308 310 309 304 303 302 300 299 299 298 298 298 299 299 299 299 299 298 298 299 299 299 299 298 297 297 297 298 298 298 298 298 297 296 296 296 296 297 297 297 297 297
335 335 335 334 334 333 332 331 330 329 327 326 324 323 322 321 320 318 317 316 316 315 315 313 312 311 310 309 309 308 307 307 307 306 305 304 305 306 306 307 307 306 306 307 309 309 305 302 302 301 299 299 299 298 298 299 299 299 299 299 299 299 298 299 299 299 298 297 298 297 298 298 298 298 298 297 297 297 297 297 297 298 298 298 298
335 334 334 334 333 332 332 331 329 328 326 325 323 322 321 320 318 317 315 314 314 314 313 312 311 310 309 308 308 308 307 307 305 304 303 302 303 305 305 306 307 306 305 305 306 308 307 303 302 301 299 299 299 298 298 299 299 299 299 299 299 299 299 298 299 299 298 297 298 298 298 299 299 299 298 298 298 297 297 297 298 298 298 298 298
334 334 334 333 333 332 331 330 328 327 325 324 322 321 320 318 317 315 313 312 312 312 312 312 311 310 309 308 308 307 306 305 303 301 300 300 300 303 304 305 305 304 303 303 303 304 306 304 302 301 300 299 299 298 298 299 299 299 299 299 299 299 300 299 299 299 298 298 298 298 299 299 299 299 299 298 297 297 298 298 298 298 298 298 298
334 334 333 332 331 331 330 329 327 326 325 323 322 320 319 317 315 313 311 310 310 311 311 311 310 309 309 308 307 307 305 304 302 300 299 299 299 301 304 304 303 303 302 302 302 302 304 305 303 301 300 299 299 298 299 300 300 300 300 300 300 299 300 300 300 300 298 298 298 299 299 299 299 299 299 298 298 298 298 298 299 298 298 298 298
334 334 333 332 331 330 329 328 327 325 324 322 321 320 318 316 314 312 310 310 310 310 310 310 310 309 309 308 307 306 304 303 301 300 299 298 297 299 301 302 302 302 301 301 302 303 305 305 303 301 300 299 299 299 299 299 300 300 300 300 300 300 300 300 300 300 299 299 299 299 299 299 299 299 299 299 298 299 299 299 299 298 298 299 298
334 333 333 332 332 331 329 327 326 325 324 322 320 319 317 315 313 312 310 310 309 310 309 309 309 308 308 307 306 305 304 303 301 300 299 298 298 298 299 300 300 300 300 301 303 303 304 304 303 301 300 299 300 300 299 299 299 300 300 300 301 300 300 301 300 300 300 300 299 300 300 299 299 299 298 299 299 299 299 299 299 299 298 298 298
334 333 333 333 332 330 328 327 325 324 323 321 320 318 316 315 313 312 310 310 309 309 308 308 308 307 307 306 305 304 303 302 301 300 300 299 299 298 298 298 297 298 300 302 302 303 303 303 302 301 300 299 300 300 300 299 300 301 300 300 300 301 300 301 301 300 300 300 300 300 301 300 299 299 299 299 299 299 299 299 299 299 299 298 298
333 333 333 333 332 329 328 326 325 323 322 321 320 319 317 315 313 311 310 309 309 308 308 307 307 306 306 305 304 303 302 302 302 301 300 300 299 299 298 297 297 299 301 302 302 303 302 302 302 300 300 300 300 300 301 301 301 301 300 300 301 301 301 300 301 301 299 299 300 301 301 300 299 299 300 301 300 299 299 300 299 299 298 298 298
332 333 333 332 331 329 328 326 324 323 322 321 321 320 318 317 314 311 310 309 308 308 307 307 306 305 305 304 303 303 302 302 301 301 300 300 300 299 298 297 297 299 301 302 302 302 302 302 301 300 300 301 301 301 301 301 301 300 301 301 301 301 301 301 301 301 299 299 299 301 302 301 299 300 301 301 300 300 300 300 299 299 299 298 298
331 332 331 330 329 328 328 327 325 323 322 322 321 320 318 317 314 311 309 308 308 307 307 306 305 305 304 303 302 302 302 302 301 301 300 301 300 300 299 298 298 299 299 300 302 302 302 301 300 300 300 301 301 301 301 301 301 300 301 301 301 301 301 301 301 301 300 299 299 300 302 301 300 301 301 301 301 300 300 299 299 299 299 299 298
329 329 328 328 328 327 327 328 326 325 323 323 321 320 318 316 313 310 309 308 307 307 306 306 305 304 303 302 302 302 302 302 301 301 301 301 301 300 299 300 299 299 298 298 299 300 299 299 300 299 300 301 301 301 301 301 300 301 301 301 302 301 301 301 301 301 300 298 298 300 302 301 301 301 301 301 301 299 298 298 298 299 299 299 299
327 327 327 326 327 327 327 327 327 325 324 323 321 319 318 315 312 309 308 307 307 306 306 305 305 304 302 302 302 302 302 302 302 301 301 301 301 300 300 300 299 299 299 297 296 296 296 297 299 300 300 301 301 301 300 300 299 300 301 301 302 302 302 302 301 300 299 298 299 300 302 301 301 300 300 301 300 299 298 298 298 298 299 299 299
326 325 325 325 325 326 326 327 327 325 324 323 321 319 318 314 311 309 307 307 306 306 305 305 304 303 302 302 302 302 302 302 302 301 301 301 300 300 300 299 299 299 298 296 294 294 295 296 298 299 299 299 300 301 300 298 298 300 301 301 302 302 301 301 300 299 298 298 298 300 301 301 300 300 300 300 299 299 299 299 298 298 299 299 299
325 325 325 326 326 326 326 326 326 324 324 323 321 319 317 313 310 308 307 306 306 305 305 304 304 303 303 303 302 302 302 303 301 301 302 301 300 300 300 298 298 299 297 295 294 295 297 297 297 299 299 298 299 300 298 297 298 299 299 300 299 299 299 299 299 300 300 299 298 299 301 301 300 300 300 299 300 299 300 299 298 297 298 299 299
325 324 324 325 326 327 327 326 325 323 323 323 321 319 317 313 309 307 306 306 305 305 305 304 304 303 303 303 303 302 302 302 301 300 301 301 300 301 300 298 298 298 296 294 295 298 299 299 299 299 299 298 298 299 298 297 298 298 298 299 299 299 299 300 300 301 301 301 299 299 300 301 300 301 300 299 299 299 299 299 298 298 298 299 299
323 322 322 323 324 325 325 325 324 323 323 322 320 318 316 312 308 307 306 306 305 305 304 304 304 304 303 303 302 301 300 301 301 300 300 301 301 301 301 299 298 297 296 295 297 299 300 300 300 300 299 298 297 298 297 296 297 298 298 299 300 301 301 301 301 300 300 301 300 299 300 301 301 301 301 299 299 299 299 299 299 298 298 299 299
323 322 323 322 320 322 325 326 325 325 324 322 320 318 316 312 308 307 306 306 305 305 304 304 303 303 303 302 301 299 299 300 301 300 299 300 301 301 301 300 298 298 298 296 297 300 300 300 301 301 300 300 299 298 298 297 296 297 298 300 301 301 300 300 301 301 300 301 300 299 299 301 300 300 301 300 299 300 300 299 299 299 299 300 300
323 322 323 322 319 321 325 326 325 324 323 321 319 318 315 311 308 307 306 306 306 305 305 304 303 303 304 302 300 299 299 300 301 300 299 299 301 301 301 300 298 298 299 298 298 300 301 300 301 301 301 301 300 300 299 297 296 297 298 299 301 301 300 300 301 301 301 301 301 299 299 301 300 300 301 300 300 300 299 299 299 299 299 300 300
Wind_Speed
13 12 11 11 12 11 12 11 11 10 9 9 10 10 9 7 6 7 8 9 9 8 8 8 9 8 9 10 11 12 11 11 11 11 11 10 10 6 5 6 7 9 11 13 13 13 13 13 13 13 13 14 15 15 15 15 15 14 14 14 15 14 14 15 14 14 14 15 15 14 15 15 15 16 17 17 17 17 17 17 17 18 18 18 19
14 14 13 12 11 11 11 11 10 9 9 10 10 8 7 6 6 7 9 10 9 8 9 9 9 9 10 13 14 13 12 11 11 10 9 9 9 8 6 7 9 10 13 13 13 13 13 13 13 13 13 14 14 14 14 14 14 14 14 13 14 14 13 14 14 13 13 14 14 14 15 15 15 15 16 16 16 16 16 17 17 17 18 18 19
14 13 13 12 10 10 9 10 10 9 10 10 9 7 6 6 6 8 10 11 9 9 9 10 11 12 14 15 14 13 12 11 10 9 8 9 9 9 8 8 10 12 13 14 13 13 13 13 13 13 14 13 13 14 14 13 13 13 13 12 13 13 12 13 13 13 13 13 13 13 13 14 15 14 15 16 16 16 16 17 17 17 18 19 19
13 12 11 10 10 9 8 9 9 10 10 9 8 7 6 6 7 9 11 11 9 9 10 12 15 16 16 15 14 13 12 10 9 8 7 7 8 9 9 10 10 12 14 13 13 13 12 13 13 14 13 13 13 13 12 13 13 13 12 12 12 12 11 11 12 12 12 13 12 13 12 13 15 13 14 16 16 16 17 17 17 17 19 19 19
12 11 10 9 9 9 8 8 9 9 9 7 7 6 6 7 8 10 12 11 9 10 13 16 18 18 17 16 15 13 11 9 8 7 6 6 7 8 9 10 10 11 13 13 13 13 12 12 13 13 13 12 12 12 12 11 12 12 11 11 11 10 10 10 10 10 11 12 12 13 12 12 14 13 14 16 15 15 16 16 17 18 19 19 19
12 11 9 8 8 8 8 8 8 8 8 7 6 6 7 8 9 12 12 10 10 12 17 19 19 18 18 15 14 12 9 8 7 6 5 6 7 8 9 10 10 10 12 12 12 12 12 12 12 12 12 11 11 11 11 10 10 10 10 9 9 9 9 9 10 10 10 11 11 13 13 12 14 13 13 15 15 15 16 16 17 18 19 19 19
12 10 9 8 7 7 7 8 9 9 8 7 7 7 8 9 11 14 13 11 10 15 19 20 19 19 18 16 12 10 8 8 7 6 6 7 7 7 8 9 9 9 10 10 10 11 11 11 11 11 11 10 10 10 9 9 9 9 9 8 8 8 9 8 9 9 10 10 10 12 13 13 13 12 12 14 14 14 15 16 17 18 18 18 20
11 10 9 8 8 7 7 8 9 9 8 7 8 8 9 11 13 15 15 12 13 17 20 20 20 20 18 15 11 9 9 8 7 7 7 8 8 8 9 8 8 9 9 9 8 9 9 10 10 10 10 10 10 10 8 8 8 8 8 8 8 8 8 8 9 9 10 9 9 11 12 12 12 11 12 13 14 14 15 16 17 17 18 18 19
11 10 9 8 7 7 8 9 9 9 9 8 9 9 11 13 14 17 16 14 17 20 21 21 21 20 17 13 11 10 10 8 7 7 8 8 8 8 8 8 8 9 9 8 8 8 8 9 11 10 10 10 10 9 8 7 7 7 7 8 8 8 8 9 9 9 10 10 8 9 10 11 12 11 11 12 13 14 14 16 16 16 18 18 18
11 10 9 8 7 8 9 9 10 9 8 9 10 10 12 15 16 18 17 17 19 22 22 23 22 20 16 13 13 12 10 9 8 8 9 9 9 9 9 10 9 9 9 9 9 9 8 9 10 10 10 10 9 8 8 7 7 6 6 7 8 8 8 9 9 9 10 9 8 9 9 10 11 11 11 12 13 13 14 15 16 16 17 17 18
12 11 10 9 8 9 9 9 10 9 9 9 11 12 14 16 17 18 19 18 20 22 24 24 23 20 17 14 13 12 10 9 8 9 9 9 10 10 10 11 11 11 11 11 10 10 9 9 8 8 8 9 9 7 6 7 7 6 6 7 8 8 9 9 10 9 9 9 8 8 9 9 11 11 10 12 13 12 13 15 15 16 16 17 17
13 12 11 10 9 10 10 10 10 10 10 10 13 14 15 18 18 19 20 19 20 22 24 25 23 19 16 16 14 12 10 9 9 9 10 9 10 10 9 9 10 11 12 12 11 11 10 9 8 7 7 7 8 7 6 6 6 6 7 7 8 9 9 9 9 9 9 9 8 8 9 9 10 11 11 12 12 12 13 13 14 16 15 16 17
14 13 12 12 11 11 11 11 11 10 9 11 13 14 16 19 19 19 20 20 21 23 25 26 22 16 13 11 11 10 10 10 9 8 9 9 10 10 9 9 9 9 11 11 11 9 8 8 7 6 6 5 6 6 5 5 6 6 7 8 9 9 9 9 9 9 9 9 8 8 9 9 10 12 11 12 12 12 13 13 14 15 15 16 18
15 14 13 13 12 12 12 12 12 11 10 11 13 14 17 19 20 20 19 20 23 26 28 24 15 12 11 9 7 6 7 9 9 8 9 9 9 10 9 8 8 8 9 9 9 7 7 6 5 5 5 4 3 3 3 3 4 6 8 9 9 9 9 9 9 9 9 9 9 8 9 9 11 12 12 12 13 12 12 13 14 15 16 17 19
16 15 15 14 13 12 12 13 13 12 12 14 15 16 19 20 21 21 19 19 21 27 29 20 12 12 11 7 5 4 4 7 9 10 10 10 10 9 8 8 8 7 8 8 7 7 6 5 5 4 4 3 2 1 1 2 4 6 8 9 11 11 10 9 9 9 9 9 9 8 8 9 11 12 12 13 13 13 12 13 15 16 17 19 20
17 16 16 15 13 12 13 13 13 13 14 16 17 18 21 22 22 23 22 19 19 26 29 20 16 16 9 3 4 4 4 6 10 11 11 11 11 10 9 9 8 8 8 8 7 7 6 5 4 4 3 3 2 0 0 1 4 6 8 10 12 13 13 11 9 9 9 9 8 8 8 9 11 12 13 13 13 13 13 13 15 16 18 20 21
18 17 16 14 14 13 13 12 12 14 15 17 19 20 22 23 24 24 24 22 20 26 27 20 19 19 10 5 4 3 3 6 9 9 10 12 11 11 11 10 9 8 8 8 8 7 6 5 4 4 4 3 2 1 1 1 3 5 7 10 12 15 15 13 10 9 9 8 8 8 9 10 11 13 13 14 14 13 13 14 15 17 19 21 22
20 18 15 14 14 13 13 12 13 15 17 18 19 21 22 24 24 24 25 24 23 25 24 20 20 20 14 8 5 3 3 8 7 5 8 11 11 11 12 11 11 9 8 8 8 7 5 5 4 4 4 4 3 2 2 1 3 5 6 9 13 15 15 14 11 9 8 8 8 8 9 10 11 13 14 14 13 13 13 14 15 18 20 21 23
20 19 17 15 14 13 13 13 15 16 18 18 20 22 23 24 24 24 25 25 24 25 24 21 20 21 17 11 7 4 5 9 6 3 5 8 10 12 12 12 12 10 9 8 8 7 6 5 4 5 5 5 4 3 2 2 4 6 8 11 14 15 15 13 11 10 8 8 8 8 9 10 11 13 14 14 14 13 14 14 16 18 20 22 23
21 20 18 16 14 13 13 14 16 17 17 19 20 22 23 24 24 24 25 25 24 24 25 25 21 19 19 13 7 7 9 10 8 6 4 4 8 10 10 12 13 12 10 9 8 8 6 5 5 5 6 5 4 3 2 2 4 6 9 12 13 14 14 12 11 10 9 8 8 8 9 9 11 13 14 14 14 14 14 15 17 19 21 22 23
21 20 18 17 15 14 14 15 16 17 17 19 20 21 22 23 24 24 25 25 25 24 24 27 23 19 19 16 9 8 10 9 9 8 4 3 5 7 9 11 11 12 13 11 9 8 7 6 6 5 5 5 4 3 2 3 5 7 9 12 13 13 12 11 10 9 8 8 7 8 9 10 10 12 14 14 15 15 16 16 17 19 21 22 23
21 20 19 17 15 14 15 16 16 17 18 19 20 21 21 22 23 24 25 25 26 25 24 25 25 22 21 18 13 10 9 7 8 9 6 4 4 5 9 11 9 11 14 13 9 7 7 7 7 6 5 5 4 3 2 3 5 7 10 12 13 11 11 10 8 7 7 8 8 8 10 10 11 12 13 14 15 16 16 17 18 19 21 22 24
22 21 20 18 16 16 16 16 17 17 18 19 19 20 21 21 22 22 24 23 24 25 24 24 24 24 23 20 17 15 12 9 9 11 9 6 4 4 8 10 8 9 12 12 8 6 7 7 7 7 6 5 4 3 2 4 6 8 11 12 12 10 9 8 7 7 7 8 9 9 10 11 11 12 13 15 15 16 17 17 18 19 20 22 24
21 21 21 19 17 17 17 17 17 17 18 18 18 19 19 19 21 21 21 22 23 24 25 24 23 23 24 23 21 18 16 13 11 12 11 8 6 5 6 8 7 6 9 11 8 6 7 7 7 7 6 5 4 3 2 4 6 9 11 12 11 9 7 7 6 7 7 8 9 10 11 11 11 12 13 14 15 16 17 17 18 19 20 22 24
20 21 21 21 19 18 18 18 18 18 18 18 17 19 18 18 20 21 20 20 21 23 24 24 23 23 24 24 23 21 18 16 14 13 12 10 8 5 5 6 6 6 8 9 8 7 6 6 7 7 5 5 4 3 3 4 6 10 11 11 10 8 6 6 6 6 7 8 9 10 11 11 11 12 13 14 15 16 17 18 19 19 20 22 23
21 21 21 22 20 19 19 19 19 18 18 18 18 18 17 16 18 18 18 19 20 21 22 23 23 23 23 23 24 24 21 21 19 15 13 12 10 7 7 5 4 7 8 9 9 8 6 6 6 6 5 4 3 2 3 4 7 10 10 9 8 6 5 5 6 6 7 8 9 10 10 10 11 11 13 14 15 16 17 18 18 19 20 21 23
25 24 23 22 20 20 19 19 19 19 18 18 18 17 15 14 15 16 16 18 18 19 20 21 21 22 22 22 22 23 23 23 21 17 15 13 12 11 11 7 4 6 7 8 9 8 7 7 6 6 5 5 3 2 3 5 8 9 9 7 6 5 5 5 5 7 7 8 9 10 10 10 11 12 13 15 16 16 16 17 18 18 19 21 23
27 26 23 22 21 20 20 20 20 19 19 18 17 16 15 14 15 15 15 16 17 18 18 19 19 19 20 21 21 22 22 21 21 19 17 15 14 14 14 12 7 5 5 6 7 8 8 8 7 7 6 4 3 2 4 4 6 8 7 5 4 4 5 5 6 7 8 8 8 9 10 10 11 12 14 15 16 16 16 17 17 18 19 21 24
28 26 23 23 22 21 21 21 21 20 19 18 17 16 15 14 15 15 15 15 16 17 17 17 18 18 19 19 19 20 20 19 19 18 17 17 16 17 16 14 11 7 5 5 7 8 9 9 7 7 7 5 3 2 3 2 5 6 5 4 4 4 5 6 7 7 8 8 8 9 10 10 11 13 14 15 15 15 15 16 17 17 19 21 24
28 26 24 23 22 22 22 21 21 21 19 18 17 15 15 15 15 15 15 15 15 16 16 17 17 17 17 17 17 18 17 16 15 14 14 15 16 18 17 15 13 10 7 6 6 8 10 9 7 7 7 6 3 1 1 1 4 5 3 3 3 4 6 6 5 6 7 7 8 9 9 10 11 13 14 15 15 14 15 16 17 17 19 22 25
29 26 25 24 23 23 23 22 21 21 20 18 17 16 15 15 15 15 15 15 15 16 16 17 17 16 16 16 16 15 14 12 12 12 13 14 14 15 16 16 16 14 11 8 6 6 9 9 8 7 7 6 4 1 0 0 3 4 2 2 3 4 4 4 4 5 6 7 8 7 8 10 11 13 14 14 14 14 15 16 17 18 20 22 25
29 28 26 25 25 24 24 23 22 21 20 19 17 16 16 15 15 16 15 15 16 16 17 17 17 16 16 15 15 14 12 12 12 12 12 13 12 13 13 15 17 17 14 11 7 6 9 9 8 8 8 6 3 2 1 0 2 3 2 2 3 4 3 4 5 6 6 7 7 7 8 10 11 12 13 14 14 14 15 16 17 19 20 22 25
30 28 27 26 26 26 25 24 23 22 21 19 18 16 16 16 16 16 16 15 16 17 17 17 17 16 16 15 14 13 12 12 12 12 12 12 12 12 12 12 15 17 14 11 7 6 9 9 9 9 9 6 3 2 1 1 2 3 3 3 3 4 4 5 5 6 6 6 7 7 8 11 11 11 12 13 13 15 15 16 17 19 21 22 25
31 29 28 28 27 26 26 25 24 23 21 20 18 17 16 16 16 16 16 16 17 17 17 17 17 17 16 16 15 13 13 12 11 11 11 11 10 9 11 11 11 14 14 11 8 7 9 10 9 8 8 6 4 3 2 1 1 2 3 4 4 3 4 4 5 6 7 6 6 7 8 10 11 10 11 12 13 15 15 16 17 19 20 22 24
31 31 29 28 28 27 26 25 24 23 22 20 19 17 16 16 16 17 16 16 17 17 18 18 17 17 17 16 15 14 13 12 11 11 10 10 9 7 9 9 10 12 14 12 8 7 8 10 10 9 8 7 5 3 2 1 1 2 3 4 4 3 3 4 5 6 7 7 6 7 8 10 10 10 11 12 13 14 15 15 17 19 21 23 24
31 31 30 28 28 27 26 26 25 24 23 21 20 18 17 16 16 16 16 16 16 17 17 17 17 18 17 17 16 14 14 13 12 11 10 9 8 7 7 8 9 11 13 13 10 7 8 9 10 8 7 7 5 3 2 2 1 1 2 3 3 3 4 4 5 6 8 7 6 6 8 10 11 10 11 12 12 13 15 16 17 19 21 22 24
32 31 30 29 28 27 26 26 26 25 23 22 20 18 17 17 16 15 15 15 16 16 17 17 17 18 17 17 16 15 15 14 13 12 11 10 8 7 8 9 10 11 13 14 12 11 11 10 10 8 7 6 5 4 2 2 2 2 2 2 2 4 5 5 5 7 9 7 6 7 9 11 12 10 10 11 12 14 15 15 17 19 21 22 23
33 31 31 30 28 27 27 26 26 25 24 22 20 19 18 17 16 16 15 15 16 16 17 17 17 17 17 17 16 16 16 16 15 14 12 11 10 9 11 11 12 13 13 13 12 11 10 9 9 9 8 7 5 4 3 2 1 2 3 3 2 3 6 7 6 7 10 9 7 7 10 13 13 12 10 10 12 14 14 15 16 18 21 22 22
33 31 32 30 28 28 27 27 26 25 24 23 21 19 18 17 17 17 16 16 16 16 17 17 17 17 17 17 16 17 17 16 15 14 13 12 12 12 12 12 13 14 13 12 11 10 10 9 8 8 8 7 6 5 4 2 1 1 3 4 4 4 6 7 7 7 9 10 8 8 10 14 15 15 13 12 12 14 14 15 17 19 21 21 21
33 32 32 30 29 28 27 27 26 25 24 23 22 21 19 18 18 17 17 17 17 17 17 18 17 17 17 17 16 17 17 16 15 14 13 13 13 13 13 13 14 14 13 12 11 9 9 9 8 7 7 7 6 5 4 3 3 2 2 4 5 5 6 7 6 6 9 12 11 10 11 14 17 17 16 14 14 15 16 16 18 21 21 21 21
33 32 32 31 30 29 27 27 27 26 25 24 22 21 19 19 18 18 18 18 18 18 18 18 18 18 17 17 17 16 16 16 14 13 12 11 12 13 13 14 14 13 13 12 10 9 10 9 8 7 7 7 7 6 5 4 3 2 2 4 5 5 7 7 5 5 8 12 13 12 10 13 17 18 15 13 14 17 17 17 19 21 21 21 22
33 34 33 32 32 30 27 28 28 27 26 25 23 21 18 18 18 19 20 19 19 19 19 19 19 18 18 17 16 16 15 15 15 14 12 11 11 11 11 12 14 14 14 12 10 10 10 8 8 8 7 8 7 7 6 4 3 3 3 4 5 5 6 7 5 5 8 11 13 13 10 11 16 16 14 14 15 16 16 16 18 21 22 22 23
33 35 35 34 34 31 27 27 28 29 28 25 23 21 19 17 17 19 21 20 20 20 19 20 20 19 18 17 16 16 17 17 17 15 13 13 13 11 9 9 12 13 13 13 12 11 10 8 8 9 8 8 8 8 6 5 4 4 4 4 5 5 5 6 6 6 9 12 13 13 11 11 13 14 14 14 15 16 17 17 19 22 22 22 23
34 35 36 35 35 32 29 27 28 29 28 26 24 22 19 18 18 19 21 20 21 21 20 20 20 19 19 18 18 19 18 19 18 16 15 17 15 12 9 9 11 12 12 13 14 14 12 9 9 10 9 8 9 9 7 5 5 5 4 5 5 5 5 6 6 7 10 12 12 12 11 10 12 14 14 14 16 18 20 20 20 22 23 23 23
34 34 35 36 36 34 32 29 29 30 29 27 25 23 20 18 18 19 20 20 21 21 21 20 20 19 20 20 21 20 19 20 19 17 18 19 16 13 10 10 12 12 12 14 14 13 12 11 10 10 11 10 9 9 8 7 6 5 5 5 5 5 6 6 7 10 11 10 9 10 10 9 10 13 14 14 16 19 20 22 22 23 24 24 23
35 35 36 37 37 36 35 32 30 31 30 27 26 23 20 19 19 20 20 20 21 21 21 21 20 20 21 22 22 21 21 21 20 19 20 19 16 14 12 12 13 14 13 15 15 12 11 11 11 10 12 13 10 9 10 9 7 6 6 6 6 7 7 8 9 11 10 9 9 9 10 10 10 11 13 15 16 18 18 21 24 24 24 25 23
37 36 37 39 38 38 37 34 32 32 30 28 26 23 21 19 19 20 20 21 21 21 21 20 20 21 22 22 22 22 22 22 21 20 20 19 17 16 14 14 15 15 16 17 17 14 13 13 11 9 11 14 12 10 10 10 8 8 8 8 9 9 10 9 10 9 8 8 9 8 9 11 11 10 13 15 16 16 16 19 23 25 25 26 24
37 36 37 40 40 39 37 35 33 32 30 28 26 23 21 20 21 22 22 22 22 22 21 21 21 22 22 22 22 21 21 22 21 19 20 19 17 17 16 15 16 17 18 19 18 16 15 14 12 10 11 14 15 13 12 10 9 9 9 9 10 10 9 9 9 8 6 8 9 8 9 12 12 11 12 14 16 17 16 18 22 25 26 27 26
36 35 36 39 39 39 38 36 34 33 31 30 27 24 22 22 23 25 24 22 22 22 21 21 22 23 22 23 22 19 20 22 21 18 19 18 17 17 17 16 17 17 18 19 20 18 16 14 13 13 13 14 15 15 13 12 11 10 10 9 9 8 8 8 8 8 8 8 10 9 9 11 12 12 13 15 15 14 14 18 22 24 25 27 27
35 35 37 38 37 38 38 35 34 33 32 31 29 26 24 24 26 27 25 23 22 21 21 22 23 22 22 22 21 19 20 21 20 18 18 18 18 18 17 17 18 17 18 20 21 19 17 15 14 14 15 15 16 15 14 13 13 12 11 10 8 7 8 9 8 9 10 9 8 8 9 11 13 13 14 16 15 12 12 18 22 22 22 25 26
36 36 37 37 35 36 37 34 33 33 33 32 30 27 26 26 28 28 26 24 23 22 22 23 23 23 24 23 20 19 19 19 19 18 17 18 20 20 18 17 18 18 18 21 22 18 16 16 15 15 16 16 16 15 14 14 14 14 13 13 11 9 9 10 9 9 9 7 7 9 10 11 12 12 13 14 14 13 16 19 21 21 21 22 24
Wind_Direction
170 168 166 165 168 169 168 168 171 173 170 167 166 163 162 167 165 164 160 153 152 151 149 148 145 141 137 134 133 130 126 124 120 115 112 106 103 106 113 113 115 113 105 101 98 96 91 90 90 87 85 81 79 79 77 76 76 73 68 65 65 61 57 55 56 53 50 49 47 45 43 39 36 34 32 29 26 24 21 18 17 15 12 10 8
167 166 164 166 172 175 175 177 179 179 171 165 165 167 169 174 172 167 161 155 155 155 151 149 145 142 142 140 136 130 126 123 118 114 112 109 107 108 117 117 113 108 106 103 100 99 95 92 90 88 87 83 79 78 78 77 75 73 69 66 66 62 57 56 56 52 49 48 47 44 40 37 35 33 31 27 24 23 21 18 16 14 11 9 7
166 166 166 170 174 175 176 180 181 175 168 166 169 173 176 179 174 170 166 157 155 158 153 150 147 146 146 143 136 132 128 123 118 113 110 111 110 109 113 118 118 112 106 103 101 99 95 92 90 89 87 86 83 79 77 76 74 73 69 67 66 62 58 55 54 52 50 46 44 42 39 37 33 31 30 26 23 22 20 17 15 14 11 8 5
167 171 173 177 180 177 171 171 172 169 168 171 177 181 182 181 175 173 169 159 154 157 155 154 151 148 147 143 138 134 128 124 119 111 104 110 118 115 112 112 115 116 111 108 106 103 98 92 89 89 88 87 85 81 78 75 73 72 70 69 65 62 61 56 52 50 48 45 42 38 37 35 29 27 26 23 21 21 20 16 14 12 8 6 4
169 174 179 183 184 182 178 175 174 174 178 182 187 190 186 183 178 173 167 159 156 157 158 158 155 151 149 146 141 134 128 127 120 107 102 110 123 123 119 115 113 114 112 109 108 104 100 95 90 89 88 88 85 82 80 76 73 71 70 69 65 62 59 54 50 47 45 43 42 35 31 30 24 22 22 21 20 19 17 14 12 9 6 5 3
173 177 183 186 187 188 190 190 190 192 196 198 200 196 189 186 181 171 162 161 160 158 162 161 158 155 152 149 141 133 131 129 116 104 109 120 126 125 125 123 120 117 111 108 107 104 103 99 96 92 88 87 86 82 80 77 73 71 70 66 63 59 54 51 48 43 39 37 38 33 26 23 21 19 19 19 19 16 14 12 9 6 4 4 1
181 183 186 194 198 199 203 205 206 207 210 212 206 196 191 190 185 172 160 162 162 158 163 161 158 156 153 148 140 137 137 126 114 108 116 127 130 129 126 126 127 126 120 112 106 105 106 104 101 97 91 87 86 84 81 79 75 71 68 63 59 55 49 45 41 36 32 28 31 27 22 20 19 17 15 15 14 11 11 9 6 4 3 3 359
191 193 194 203 208 209 215 218 217 215 217 216 204 195 191 189 189 181 167 161 161 160 163 162 158 156 153 150 148 148 140 123 115 118 125 129 131 131 125 125 130 133 128 119 111 108 108 108 106 101 95 89 85 84 81 80 78 73 68 61 56 50 43 38 33 30 25 23 23 21 18 16 15 13 10 11 9 6 7 5 4 6 5 3 359
196 198 200 208 215 218 222 223 220 216 213 208 199 193 192 192 187 186 182 170 164 164 164 162 159 156 153 153 152 147 137 126 123 125 128 130 131 129 127 129 130 129 127 122 121 117 112 113 111 105 100 94 88 84 80 78 76 71 64 57 52 44 37 31 26 22 19 17 17 17 15 11 10 8 7 8 4 3 5 4 6 10 8 4 3
198 199 202 209 216 224 226 221 215 210 203 197 194 189 192 196 188 184 186 176 169 168 166 162 158 154 153 154 150 144 135 129 129 128 130 133 132 128 127 128 125 124 125 125 126 125 123 118 110 104 103 101 95 87 77 71 67 67 60 50 44 38 32 25 20 15 12 12 11 13 12 7 8 6 5 4 1 2 4 3 7 11 8 6 6
199 202 205 210 214 223 226 216 208 202 194 190 190 188 190 196 193 185 180 174 174 173 167 162 157 153 155 155 149 142 137 135 136 137 138 140 136 130 127 124 123 122 122 124 126 126 127 123 117 111 107 107 104 97 85 70 59 54 51 44 34 30 26 19 15 10 8 8 6 10 10 5 5 3 1 1 359 1 2 1 6 8 5 4 4
204 207 210 215 216 221 223 213 203 197 191 190 191 191 192 194 194 188 180 174 176 174 168 161 153 147 150 153 151 147 145 146 144 145 148 148 143 137 135 133 129 125 122 124 126 124 124 121 122 121 114 107 100 96 95 84 68 49 40 37 28 23 20 14 11 7 5 5 2 5 8 2 2 1 356 358 359 359 359 359 2 2 0 0 359
208 210 212 218 217 218 220 212 202 194 192 197 197 195 195 196 193 187 182 176 170 169 167 160 148 140 141 145 148 151 156 158 157 161 166 162 155 148 146 147 144 137 132 129 130 132 129 125 123 124 122 114 97 90 86 76 64 47 34 30 26 21 16 11 9 5 1 1 359 360 4 1 360 358 353 354 354 354 356 355 354 354 353 352 351
211 211 213 219 218 215 217 212 203 194 194 199 201 199 198 199 192 181 178 176 171 170 168 161 152 147 145 141 141 151 165 174 178 184 185 178 170 164 161 159 157 155 149 143 147 150 143 139 133 130 131 127 112 88 67 47 38 33 24 21 22 21 15 9 4 0 356 357 357 356 360 359 356 355 352 350 348 346 349 350 349 348 347 345 345
213 212 214 219 220 216 215 212 203 196 196 197 200 202 200 200 195 184 174 171 171 173 172 169 159 145 139 146 158 162 177 194 203 204 198 192 186 182 181 176 174 173 169 168 171 169 162 159 152 147 145 139 128 75 50 20 12 16 14 13 14 14 12 6 358 356 354 352 354 354 355 355 354 354 351 348 346 343 344 346 346 345 344 343 342
213 212 214 220 220 216 213 209 202 199 200 200 201 203 203 200 196 191 180 168 167 174 178 182 174 158 142 127 153 180 212 195 195 203 204 202 200 198 195 190 189 189 189 189 185 178 175 176 176 171 158 154 157 95 338 335 358 4 6 7 7 6 4 3 358 354 352 349 352 352 351 353 353 352 351 348 346 344 343 344 344 344 343 342 341
214 213 212 219 220 215 210 204 199 200 201 203 204 205 206 203 198 196 190 181 175 176 182 191 188 177 165 136 143 215 227 170 175 193 204 208 211 207 206 202 198 200 200 195 187 185 184 191 198 186 171 173 184 221 254 305 358 5 4 0 359 359 358 358 357 354 351 349 350 352 352 353 354 353 352 350 348 346 345 344 345 344 344 342 341
214 213 212 218 220 215 210 204 202 203 203 204 207 208 207 205 204 200 197 195 186 179 184 193 193 190 185 178 196 240 159 152 166 184 193 208 216 211 212 211 206 206 203 194 189 188 186 193 203 191 185 195 210 244 265 307 353 5 359 353 354 354 355 354 353 352 352 350 349 353 355 355 356 356 355 354 353 350 348 346 346 345 345 344 343
213 213 215 219 219 215 211 208 206 205 204 205 208 211 209 208 207 204 201 201 194 186 187 190 192 198 202 204 218 222 169 164 178 179 178 202 214 214 216 212 209 210 206 198 192 190 189 194 202 191 194 209 232 255 265 315 342 354 351 350 352 351 351 350 346 346 349 352 352 352 356 357 359 359 359 359 357 354 351 349 348 346 346 345 343
212 214 216 217 217 215 211 208 207 205 205 207 210 212 212 210 209 208 206 205 205 200 196 193 194 201 207 210 218 210 192 187 192 197 197 194 194 204 213 212 212 212 208 203 197 197 198 204 201 185 195 220 240 247 244 305 335 347 347 350 352 348 347 345 342 340 340 347 353 354 353 353 357 359 1 3 1 357 353 349 348 346 345 345 344
211 214 216 216 216 215 212 209 208 206 206 208 212 213 214 213 211 211 211 210 214 214 208 205 204 204 206 206 203 192 189 196 198 198 216 218 190 189 191 198 210 213 212 210 205 204 205 207 201 186 201 222 227 235 248 299 329 344 346 349 350 346 342 340 338 333 330 335 345 351 350 346 349 354 358 360 358 356 352 348 346 344 344 344 343
209 213 215 215 215 215 213 210 208 208 209 210 212 213 213 215 215 215 216 216 218 218 216 217 216 215 213 206 197 186 182 194 196 195 212 231 223 198 184 190 198 200 207 211 207 205 205 203 197 188 200 211 210 220 244 303 326 341 346 348 349 345 339 336 330 325 322 328 336 344 346 342 342 346 350 352 352 350 348 346 344 342 342 342 342
209 211 214 214 215 214 212 210 209 209 212 213 213 213 213 216 218 219 220 221 223 224 223 224 225 224 221 215 207 201 200 207 203 200 210 216 221 211 190 195 194 185 195 205 205 196 191 191 192 193 196 199 203 216 254 310 330 342 346 348 348 344 337 330 320 317 320 327 334 339 342 342 342 343 345 346 346 346 344 343 341 340 340 341 342
206 209 212 213 212 212 209 208 209 210 213 215 216 215 215 218 220 220 223 226 228 229 228 229 230 227 225 224 221 218 218 224 218 208 215 220 224 220 185 183 190 175 178 189 189 179 179 179 180 188 193 194 205 228 280 320 335 343 346 347 347 344 335 324 312 312 322 333 337 339 340 340 341 341 342 343 342 342 342 341 341 340 341 343 343
204 206 210 213 212 211 210 208 209 211 213 214 217 218 215 218 222 222 226 230 232 233 232 234 234 232 231 230 228 227 227 231 230 224 223 221 224 220 172 169 186 167 162 175 172 162 170 173 169 176 183 189 210 249 302 333 338 342 347 349 346 343 333 318 308 312 325 336 339 339 338 337 338 337 338 338 337 338 340 341 341 341 343 344 344
206 208 212 214 213 213 212 210 211 212 213 214 219 223 220 218 223 227 231 235 236 235 234 236 236 236 237 234 232 232 233 235 236 233 225 218 217 202 161 151 176 165 164 177 177 173 171 168 170 172 177 190 218 268 312 337 339 342 349 351 342 336 330 316 310 315 324 334 336 336 335 335 336 335 334 335 335 337 339 340 341 342 343 344 344
214 216 216 214 213 213 211 210 212 213 214 217 221 227 227 224 226 230 233 236 237 236 234 235 237 237 238 237 236 236 238 239 239 236 228 222 220 202 175 162 165 170 178 184 188 195 180 163 171 178 183 202 220 269 324 339 339 344 353 351 337 326 324 318 313 315 319 325 331 331 332 334 334 333 333 333 334 336 337 340 342 343 344 345 344
220 220 217 214 214 212 209 210 212 214 216 219 223 227 229 229 230 232 234 236 237 236 236 236 237 238 238 238 238 238 239 240 239 238 235 231 226 213 197 190 188 179 185 191 196 199 181 171 181 183 188 202 214 277 334 345 337 347 356 346 329 316 313 315 314 314 314 318 326 330 330 331 331 332 333 333 332 333 336 340 341 343 346 345 344
223 222 217 214 214 212 210 211 212 215 218 221 224 227 228 229 230 233 235 237 237 238 239 238 237 237 237 237 237 238 240 239 239 240 238 235 231 222 212 209 211 205 191 197 202 197 187 188 191 185 188 197 210 283 343 351 333 348 357 335 326 311 306 311 314 314 314 320 327 329 328 330 333 334 333 332 331 332 336 341 342 344 346 344 343
223 221 216 213 213 212 212 212 213 216 220 222 224 225 226 227 228 231 234 236 238 238 237 235 234 233 232 232 232 234 236 236 236 234 229 229 228 224 219 216 221 224 213 207 204 191 185 189 194 188 184 187 203 275 1 341 335 351 357 334 329 314 308 313 319 320 320 324 329 330 331 334 335 336 334 331 330 332 338 343 344 346 345 344 343
221 219 214 211 212 213 213 214 216 218 220 221 223 223 223 225 227 230 232 232 234 236 235 231 229 227 226 225 223 224 226 223 222 221 219 221 222 223 223 220 224 227 220 220 219 184 178 187 190 186 179 179 194 226 124 290 338 352 359 346 329 315 316 324 332 331 323 324 331 336 337 336 335 335 335 331 329 333 339 343 344 345 344 343 344
220 217 213 211 213 214 214 216 217 219 220 221 221 220 221 224 227 230 231 230 231 231 230 227 223 220 218 217 215 214 213 210 212 214 217 221 220 221 225 224 224 224 218 222 225 170 166 182 176 175 184 185 188 198 184 283 335 344 355 353 324 315 321 324 330 338 331 324 331 341 340 337 335 335 334 331 331 335 338 341 343 343 342 342 343
218 216 213 212 214 215 215 217 219 221 221 221 220 219 220 223 226 229 230 229 229 227 226 222 217 212 209 209 209 206 206 206 210 216 220 225 225 224 224 219 220 221 212 212 213 155 157 178 168 172 190 190 188 200 204 286 331 337 340 335 323 320 319 318 327 340 342 331 330 337 338 339 339 337 334 332 332 335 337 340 342 340 340 341 342
217 216 214 213 214 215 216 218 220 221 221 221 221 219 221 225 227 229 229 227 226 223 220 217 212 206 203 204 204 203 204 206 212 219 223 224 220 216 217 210 208 214 208 203 193 154 156 174 172 176 188 190 195 197 193 243 314 331 332 329 330 330 320 319 329 339 344 341 334 333 338 344 345 340 336 333 332 335 339 341 340 338 339 339 341
216 215 215 214 214 214 216 218 219 219 219 220 221 220 223 227 229 230 229 227 224 221 217 213 208 203 200 201 203 203 204 205 210 215 216 214 207 202 211 208 204 209 205 195 182 156 154 167 176 182 183 187 197 192 193 226 280 331 336 332 332 344 341 336 342 341 343 346 344 343 347 353 353 347 338 332 332 336 338 337 336 337 338 338 341
214 214 215 215 214 214 214 216 217 217 218 219 219 220 223 226 228 229 228 225 222 220 217 213 208 203 200 201 203 203 203 203 204 204 203 200 196 194 198 195 192 194 192 187 185 186 183 174 176 183 180 184 194 196 213 239 236 295 351 354 342 355 356 346 346 347 347 349 349 352 357 0 358 349 338 333 334 335 334 334 336 337 338 339 343
213 213 213 212 213 213 213 214 215 215 216 218 218 220 222 224 224 225 225 222 220 218 216 214 210 206 205 205 205 204 203 200 196 194 193 188 183 181 181 175 171 175 183 188 190 195 195 180 171 177 180 183 191 197 216 253 262 273 339 7 7 10 5 351 341 348 356 1 357 354 359 2 1 355 344 337 335 333 333 335 337 338 340 342 345
212 212 212 211 212 212 212 214 214 214 215 216 216 219 221 220 219 219 219 219 218 216 214 213 211 210 209 209 208 206 203 200 195 190 186 181 176 179 181 173 168 174 182 186 184 182 182 174 167 174 182 185 189 196 201 224 295 312 329 341 348 6 6 355 339 345 359 7 5 353 356 3 5 3 354 341 338 338 338 338 341 343 344 345 347
212 211 211 211 211 211 212 213 213 214 215 214 215 217 218 217 215 214 214 215 215 214 212 211 211 211 211 211 209 207 205 202 198 191 186 181 178 181 182 176 175 179 180 176 174 170 167 166 168 175 182 184 191 197 193 200 258 320 343 342 338 345 356 354 341 338 352 2 3 349 351 2 8 9 6 358 350 347 343 343 347 349 348 348 349
213 212 211 210 209 209 212 213 212 213 214 213 214 215 215 215 213 213 213 212 212 212 210 210 210 210 210 210 209 207 206 204 200 196 192 186 181 181 183 183 183 182 177 170 168 166 166 169 173 177 179 184 193 199 199 210 230 244 340 342 332 334 343 344 339 334 342 352 354 346 346 359 7 10 8 2 356 352 350 350 352 352 351 350 349
213 212 212 210 207 206 209 211 211 212 213 213 215 214 213 213 212 212 212 211 210 209 207 206 207 207 208 208 207 207 205 202 201 201 199 197 190 186 188 191 190 184 177 171 168 169 171 173 175 176 182 190 195 199 202 210 229 254 318 329 320 323 332 334 336 337 340 345 347 344 345 355 5 8 1 353 352 354 354 353 353 352 352 352 351
211 212 210 208 206 204 206 209 210 211 213 215 216 216 216 216 214 211 210 209 208 207 205 203 203 204 206 206 205 204 201 201 201 200 203 204 199 198 201 200 194 188 180 174 173 176 177 179 181 181 189 199 198 198 204 210 233 265 293 313 316 319 328 332 336 342 344 344 343 341 341 352 1 1 355 350 353 355 353 350 351 353 354 354 353
210 210 207 205 205 204 205 209 211 211 213 215 215 215 216 218 216 211 208 207 206 205 205 202 201 202 202 202 201 199 198 201 200 200 205 203 199 208 218 206 198 199 192 183 181 182 183 184 183 188 197 202 197 197 206 214 230 256 280 300 311 314 320 331 336 338 342 343 340 334 333 346 355 352 350 352 352 352 354 351 351 354 355 356 355
207 207 204 203 204 204 204 208 211 213 214 214 213 213 214 215 214 210 208 207 205 204 203 202 203 202 199 197 196 196 198 201 200 200 202 199 203 217 218 199 203 214 210 199 192 190 191 189 187 195 203 201 197 199 204 214 227 247 272 284 296 301 305 319 324 325 333 336 334 328 325 340 354 350 346 348 347 350 356 356 353 353 355 356 356
204 204 203 204 205 205 203 205 210 214 214 212 211 211 212 213 211 208 209 209 207 205 203 202 203 201 198 194 193 196 200 199 198 202 201 199 208 220 211 200 210 217 215 212 207 202 202 199 195 201 204 200 198 201 206 218 232 245 263 278 289 293 293 301 310 320 329 331 328 321 318 333 353 349 343 343 344 347 353 355 355 353 353 355 357
202 202 202 203 205 206 205 205 209 211 212 211 209 208 209 210 208 207 209 210 208 207 206 204 202 200 198 195 195 200 200 197 199 203 204 206 215 216 206 206 214 215 214 213 210 205 204 204 204 208 210 205 200 201 211 223 236 245 259 276 283 287 292 297 307 320 328 329 327 320 318 330 344 342 339 340 341 341 344 349 353 354 352 353 356
200 201 202 204 206 207 206 207 208 210 210 210 207 205 206 207 204 204 207 208 207 207 207 205 203 201 200 200 203 203 200 202 207 208 207 214 216 209 207 211 212 212 213 211 206 201 200 202 204 208 213 209 204 208 219 227 239 247 253 265 273 283 292 294 301 311 316 322 327 320 315 326 332 330 333 338 337 336 338 343 349 352 351 351 355
199 201 202 205 206 207 207 207 208 209 209 209 205 203 205 204 200 201 205 207 206 206 206 205 203 202 204 205 206 206 206 212 217 214 213 215 211 206 210 214 211 210 211 208 206 204 205 206 204 203 210 213 212 219 228 233 243 252 257 264 270 276 285 288 291 297 301 313 321 315 307 318 325 322 324 333 337 335 336 341 346 351 352 352 354
199 200 203 205 206 205 205 206 207 208 208 207 203 201 203 201 196 197 201 203 204 206 206 205 204 205 206 206 206 208 214 218 220 217 214 211 208 209 214 215 210 206 206 207 208 210 212 214 214 212 214 217 220 227 235 239 243 251 256 262 263 262 272 284 288 298 306 307 310 312 304 311 324 324 318 325 331 330 334 342 346 348 351 352 353
198 201 205 206 205 205 206 208 208 208 208 206 201 199 201 199 196 196 199 200 201 203 204 204 206 207 207 208 212 214 216 217 217 216 214 210 209 213 214 212 207 202 202 207 210 213 218 221 225 226 225 226 228 232 240 244 244 246 249 254 257 256 268 282 288 297 303 296 300 316 310 310 325 329 320 321 324 322 330 341 345 346 348 349 349
199 201 205 206 204 206 209 211 210 210 210 206 199 197 199 197 196 197 198 198 198 199 200 203 205 205 206 210 217 218 217 216 214 215 217 214 212 216 215 211 207 205 205 208 211 214 221 226 230 234 234 233 231 235 245 248 244 243 247 251 253 253 264 279 286 292 298 296 308 321 313 309 322 329 327 326 328 330 335 340 343 346 348 347 345